Weather History for Crossville, TN

Change the Weather History Date:

Thursday, March 20, 2014

  Actual Average Record
Temperature  
Mean Temperature 45 °F 48 °F  
Max Temperature 56 °F 59 °F 80 °F (2012)
Min Temperature 33 °F 38 °F 14 °F (1965)
Degree Days  
Heating Degree Days 20    
Month to date heating degree days 416  
Since 1 July heating degree days 3957  
Cooling Degree Days 0    
Month to date cooling degree days 0  
Year to date cooling degree days 0  
Moisture  
Dew Point 26 °F    
Average Humidity 53    
Maximum Humidity 82    
Minimum Humidity 24    
Precipitation  
Precipitation 0.00 in 0.16 in 4.37 in (1980)
Month to date precipitation 2.14 3.08  
Year to date precipitation 7.80 12.30  
Sea Level Pressure  
Sea Level Pressure 30.12 in    
Wind  
Wind Speed 5 mph (NNW)    
Max Wind Speed 15 mph    
Max Gust Speed 20 mph    
Visibility 9 miles    
Events      
T = Trace of Precipitation, MM = Missing Value Source: NWS Daily Summary

Daily Weather History Graph

Daily Weather History Graph

Search for Another Location

Airport:

Trip Planner

Search our weather history database for the weather conditions in past years. The results will help you decide how hot, cold, wet, or windy it might be!

Date:

Astronomy

Mar. 20, 2014 Rise Set
Actual Time 6:43 AM CDT 6:52 PM CDT
Civil Twilight 6:18 AM CDT 7:17 PM CDT
Nautical Twilight 5:48 AM CDT 7:47 PM CDT
Astronomical Twilight 5:18 AM CDT 8:17 PM CDT
Moon 11:03 PM CDT (3/20) 8:57 AM CDT (3/20)
Length of Visible Light 12h 59m
Length of Day
12h 08m
Waning Gibbous, 84% of the Moon is Illuminated
Mar 20
Waning Gibbous
Mar 23
Last Quarter
Mar 30
New
Apr 7
First Quarter
Apr 15
Full

Hourly Weather History & Observations

Time (CDT) Temp. Windchill Dew Point Humidity Pressure Visibility Wind Dir Wind Speed Gust Speed Precip Events Conditions
12:53 AM 46.0 °F 42.5 °F 37.0 °F 71% 30.08 in 10.0 mi NW 6.9 mph - N/A   Clear
1:53 AM 44.1 °F 38.1 °F 36.0 °F 73% 30.10 in 9.0 mi NNW 11.5 mph - N/A   Clear
2:53 AM 42.1 °F 37.7 °F 34.0 °F 73% 30.10 in 9.0 mi NW 6.9 mph - N/A   Clear
3:53 AM 39.0 °F 34.8 °F 32.0 °F 76% 30.11 in 7.0 mi NW 5.8 mph - N/A   Clear
4:53 AM 36.0 °F - 30.9 °F 82% 30.12 in 6.0 mi Calm Calm - N/A   Haze
5:53 AM 35.1 °F 32.2 °F 30.0 °F 82% 30.12 in 6.0 mi NNW 3.5 mph - N/A   Haze
6:53 AM 33.1 °F - 28.9 °F 85% 30.14 in 5.0 mi Calm Calm - N/A   Clear
7:53 AM 37.9 °F 35.5 °F 30.0 °F 73% 30.15 in 6.0 mi North 3.5 mph - N/A   Haze
8:53 AM 39.9 °F 35.1 °F 30.0 °F 68% 30.17 in 8.0 mi North 6.9 mph - N/A   Clear
9:16 AM 42.1 °F 37.1 °F 30.0 °F 62% 30.17 in 10.0 mi North 8.1 mph - N/A   Partly Cloudy
9:53 AM 44.1 °F 40.8 °F 28.9 °F 55% 30.17 in 10.0 mi North 5.8 mph - N/A   Clear
10:53 AM 46.0 °F 42.5 °F 26.1 °F 46% 30.17 in 10.0 mi NNW 6.9 mph - N/A   Clear
11:53 AM 48.9 °F - 21.9 °F 35% 30.15 in 10.0 mi NNW 10.4 mph - N/A   Clear
12:53 PM 51.1 °F - 19.9 °F 29% 30.13 in 10.0 mi WNW 8.1 mph 19.6 mph N/A   Clear
1:53 PM 53.1 °F - 19.0 °F 26% 30.11 in 10.0 mi NNW 11.5 mph 18.4 mph N/A   Clear
2:53 PM 54.0 °F - 19.0 °F 25% 30.10 in 10.0 mi NNW 8.1 mph - N/A   Clear
3:53 PM 54.0 °F - 18.0 °F 24% 30.09 in 10.0 mi Variable 4.6 mph - N/A   Clear
4:53 PM 54.0 °F - 19.0 °F 25% 30.08 in 10.0 mi Variable 4.6 mph - N/A   Clear
5:53 PM 54.0 °F - 19.9 °F 26% 30.09 in 10.0 mi NNW 6.9 mph - N/A   Clear
6:53 PM 50.0 °F - 21.0 °F 32% 30.11 in 10.0 mi WNW 3.5 mph - N/A   Clear
7:53 PM 43.0 °F 41.3 °F 24.1 °F 47% 30.11 in 10.0 mi SW 3.5 mph - N/A   Clear
8:53 PM 43.0 °F - 23.0 °F 45% 30.12 in 10.0 mi Calm Calm - N/A   Clear
9:53 PM 39.9 °F - 24.1 °F 53% 30.13 in 10.0 mi Calm Calm - N/A   Clear
10:53 PM 37.0 °F - 24.1 °F 59% 30.14 in 10.0 mi Calm Calm - N/A   Clear
11:53 PM 35.1 °F - 26.1 °F 70% 30.13 in 10.0 mi Calm Calm - N/A   Clear